Location: Unspecified
(48.8656°N, 0.0000°E)
Time: 23:45:05
(UTC+00:00)

SR - Pass Details

Date: 30 June 2019
Orbit: 575 x 881 km, 66.7° (Epoch: 12 October)

Event Time Altitude Azimuth Distance (km) Brightness Sun altitude
Rises 01:36:28 0° 199° (SSW) 2,773 - -15.0°
Reaches altitude 10° 01:38:42 10° 195° (SSW) 1,879 - -14.9°
Exits shadow 01:40:32 24° 184° (S) 1,200 ? -14.8°
Maximum altitude 01:42:45 51° 119° (ESE) 740 ? -14.6°
Drops below altitude 10° 01:46:58 10° 44° (NE) 1,954 ? -14.3°
Sets 01:49:20 0° 39° (NE) 2,897 ? -14.2°
